Location: Eaton Estates
(41.3089°N, 82.0057°W)
Time: 08:03:17
(UTC+00:00)

NOAA 18 - Pass Details

Date: 11 April 2023
Orbit: 838 x 860 km, 98.9° (Epoch: 03 June)

Event Time Altitude Azimuth Distance (km) Brightness Sun altitude
Exits shadow 02:02:53 20° 63° (ENE) 1,906 6.8 -21.6°
Maximum altitude 02:03:01 20° 61° (ENE) 1,906 6.8 -21.6°
Drops below altitude 10° 02:06:52 10° 17° (NNE) 2,503 7.8 -22.2°
Sets 02:09:51 0° 1° (N) 3,442 8.8 -22.7°
